Flag for U.S.A. Weather past 2 weeks in Scottsdale, Arizona, U.S.A.

Now
72 °F

Sunny.


Feels Like: 77 °F
Forecast: 60 / 75 °F
Wind: 7 mph from East

Location: Scottsdale Airport

Current Time: Apr 24, 2015 at 5:48:55 PM

Latest Report: Apr 24, 2015 at 3:53 PM


Visibility: 10 mi

Pressure: 29.83 "Hg

Humidity: 40%

Dew point: 46 °F

Location of ScottsdaleLocation

Historic Weather in Scottsdale — Graph

°F

Scottsdale temperature yesterday

Maximum temperature yesterday: 80 °F (at 1:53 PM)
Minimum temperature yesterday: 61 °F (at 5:53 AM)
Average temperature yesterday: 72 °F

Past Weeks' High & Low Weather Summary

 TemperatureHumidityPressure
High90 °F (Apr 20, 4:53 PM)66% (Apr 24, 1:53 PM)30.02 "Hg (Apr 24, 1:53 PM)
Low52 °F (Apr 16, 5:53 AM)2% (Apr 15, 11:53 AM)29.66 "Hg (Apr 20, 5:53 PM)
Average72 °F19%29.84 "Hg
* Reported Apr 9 3:53 PM — Apr 24 3:53 PM, Scottsdale, Weather by CustomWeather, © 2015

Note: Actual official high and low records may vary slightly from our data, if they occured in-between our weather recording intervals... More about our weather records

Advertising

Scottsdale weather history for previous 24 hours

 ConditionsComfort  
Time TempWeatherWind HumidityBarometerVisibility
3:53 PM
Fri, Apr 24
72 °FSunny.7 mph40%29.83 "Hg10 mi
2:53 PM71 °FPassing clouds.6 mph44%29.86 "Hg10 mi
1:53 PM65 °FOvercast.5 mph66%29.89 "Hg10 mi
12:53 PM69 °FBroken clouds.No wind44%29.88 "Hg10 mi
11:53 AM67 °FMore clouds than sun.No wind51%29.90 "Hg10 mi
10:53 AM68 °FScattered clouds.5 mph51%29.91 "Hg10 mi
9:53 AM64 °FMostly cloudy.5 mph63%29.92 "Hg10 mi
8:53 AM63 °FLight rain. Overcast.3 mph58%29.90 "Hg10 mi
7:53 AM62 °FMostly cloudy.9 mph54%29.88 "Hg10 mi
6:53 AM62 °FOvercast.8 mph50%29.87 "Hg10 mi
5:53 AM61 °FPartly sunny.5 mph50%29.84 "Hg10 mi
4:53 AM61 °FPassing clouds.No wind48%29.81 "Hg10 mi
3:53 AM62 °FPassing clouds.5 mph44%29.80 "Hg10 mi
2:53 AM63 °FPassing clouds.No wind40%29.78 "Hg10 mi
1:53 AM65 °FClear.5 mph42%29.77 "Hg10 mi
12:53 AM67 °FPassing clouds.8 mph37%29.78 "Hg10 mi
11:53 PM
Thu, Apr 23
70 °FPassing clouds.8 mph34%29.77 "Hg10 mi
10:53 PM71 °FPassing clouds.8 mph30%29.76 "Hg10 mi
9:53 PM73 °FClear.10 mph28%29.75 "Hg10 mi
8:53 PM74 °FClear.6 mph24%29.72 "Hg10 mi
7:53 PM75 °FClear.3 mph22%29.70 "Hg10 mi
6:53 PM77 °FSunny.7 mph19%29.69 "Hg10 mi
5:53 PM78 °FScattered clouds.7 mph17%29.69 "Hg10 mi
Weather by CustomWeather, © 2015

See weather overviewHow to use our weather pages